Flag for U.S.A. Weather past 2 weeks in Butte, Montana, U.S.A.

Now
29 °F

Clear.


Feels Like: 29 °F
Forecast: 32 / 59 °F
Wind: No wind

Location: Mooney Airport

Current Time: Mar 27, 2015 at 5:17:36 AM

Latest Report: Mar 27, 2015 at 4:53 AM


Visibility: 10 mi

Pressure: 30.26 "Hg

Humidity: 89%

Dew point: 26 °F

Location of ButteLocation

Historic Weather in Butte — Graph

°F

Butte temperature yesterday

Maximum temperature yesterday: 55 °F (at 5:53 PM)
Minimum temperature yesterday: 35 °F (at 3:53 AM)
Average temperature yesterday: 45 °F

Past Weeks' High & Low Weather Summary

 TemperatureHumidityPressure
High63 °F (Mar 14, 1:53 PM)97% (Mar 17, 10:53 PM)30.55 "Hg (Mar 17, 10:53 PM)
Low22 °F (Mar 13, 7:53 AM)15% (Mar 13, 5:53 PM)29.78 "Hg (Mar 23, 6:53 AM)
Average41 °F61%30.11 "Hg
* Reported Mar 12 3:53 AM — Mar 27 3:53 AM, Butte, Weather by CustomWeather, © 2015

Note: Actual official high and low records may vary slightly from our data, if they occured in-between our weather recording intervals... More about our weather records

Advertising

Butte weather history for previous 24 hours

 ConditionsComfort  
Time TempWeatherWind HumidityBarometerVisibility
3:53 AM
Fri, Mar 27
30 °FClear.3 mph89%30.26 "Hg10 mi
2:53 AM31 °FClear.3 mph89%30.28 "Hg10 mi
1:53 AM33 °FClear.3 mph88%30.28 "Hg10 mi
12:53 AM39 °FClear.No wind76%30.27 "Hg10 mi
11:53 PM
Thu, Mar 26
43 °FClear.No wind68%30.27 "Hg10 mi
10:53 PM45 °FClear.5 mph63%30.28 "Hg10 mi
9:53 PM47 °FPassing clouds.6 mph61%30.29 "Hg10 mi
8:53 PM48 °FPassing clouds.9 mph59%30.28 "Hg10 mi
7:53 PM50 °FPassing clouds.12 mph54%30.27 "Hg10 mi
6:53 PM53 °FPartly sunny.14 mph47%30.25 "Hg10 mi
5:53 PM55 °FScattered clouds.21 mph44%30.24 "Hg10 mi
4:53 PM53 °FScattered clouds.17 mph48%30.25 "Hg10 mi
3:53 PM54 °FMostly cloudy.17 mph47%30.25 "Hg10 mi
2:53 PM52 °FOvercast.12 mph50%30.26 "Hg10 mi
1:53 PM53 °FOvercast.17 mph48%30.26 "Hg10 mi
12:53 PM51 °FMostly cloudy.15 mph52%30.27 "Hg10 mi
11:53 AM49 °FScattered clouds.12 mph52%30.27 "Hg10 mi
10:53 AM46 °FMostly cloudy.8 mph61%30.30 "Hg10 mi
9:53 AM42 °FMostly cloudy.5 mph65%30.32 "Hg10 mi
8:53 AM40 °FOvercast.3 mph70%30.31 "Hg10 mi
7:53 AM37 °FOvercast.6 mph76%30.31 "Hg10 mi
6:53 AM38 °FOvercast.5 mph70%30.29 "Hg10 mi
5:53 AM37 °FOvercast.5 mph73%30.29 "Hg10 mi
Weather by CustomWeather, © 2015

See weather overviewHow to use our weather pages